Theta_e
301 300 302 303 305 304 304 304 305 305 306 307 308 309 311 312 310 310 310 307 308 310 325 333 335 337 337 340 340 339 336 334 332 332 333 333 332 330 329 327 325 324 325 325
303 303 303 304 304 304 304 305 305 307 308 310 307 308 307 307 309 311 312 312 309 308 311 316 333 335 337 339 340 340 339 337 334 332 332 333 332 332 331 331 329 325 324 324
306 306 306 306 306 305 304 304 305 305 306 309 305 307 307 308 310 310 310 310 310 311 310 311 316 333 335 338 340 341 340 339 337 335 333 334 336 336 335 335 335 334 330 329
307 306 307 307 308 307 305 303 304 305 307 308 309 313 311 309 309 311 310 310 310 310 309 310 310 315 334 336 339 340 341 340 340 337 335 335 338 337 336 336 336 335 336 334
306 306 306 308 307 306 307 307 305 306 305 307 312 309 309 308 310 310 310 311 310 311 311 313 308 311 315 332 337 339 340 341 341 340 338 336 336 337 337 337 338 337 337 337
306 305 307 307 307 306 307 306 305 305 308 313 311 312 310 308 309 310 312 312 312 311 312 312 312 313 313 316 333 338 340 340 341 341 340 338 336 336 337 340 339 339 338 338
307 305 306 306 307 305 306 310 312 311 311 311 310 310 310 309 309 312 314 313 313 313 313 314 313 315 314 311 325 336 339 340 341 341 341 340 338 337 336 338 340 339 339 339
310 306 307 307 305 305 306 312 310 315 316 316 314 310 311 313 313 313 313 313 312 312 312 312 314 314 316 316 319 334 338 340 340 341 341 341 341 339 337 337 338 340 340 339
310 311 306 307 304 306 309 310 311 315 316 319 316 311 312 313 313 312 311 312 311 311 311 311 312 315 316 317 318 328 337 339 340 340 342 341 341 341 340 339 339 339 339 339
309 308 307 304 304 306 311 310 315 316 317 315 313 316 314 313 312 313 310 310 310 311 312 312 312 313 313 313 315 319 328 336 339 339 341 342 342 342 341 340 340 339 340 340
304 307 305 306 303 303 311 309 312 314 316 319 318 314 311 312 311 313 311 309 309 310 311 311 311 311 311 311 312 313 316 323 330 338 339 341 342 342 341 340 340 340 340 340
302 302 308 304 300 301 309 307 307 314 313 313 317 316 310 310 310 312 312 312 312 311 309 310 309 309 309 309 309 310 311 315 318 328 331 338 338 339 340 340 340 338 338 339
302 300 299 299 305 305 307 306 303 305 311 313 311 311 308 310 309 311 311 311 310 309 308 307 307 307 307 307 308 308 308 309 311 317 321 328 331 332 333 336 336 335 335 335
303 302 300 298 299 303 304 303 302 302 303 307 309 308 309 310 309 310 309 308 308 307 307 306 306 306 305 305 306 306 307 308 308 310 313 315 317 319 324 327 327 328 332 332
298 300 303 303 302 301 301 300 300 300 302 304 303 304 308 308 309 306 306 307 306 306 305 305 305 305 305 305 304 304 305 306 306 308 309 310 310 313 315 316 317 318 319 323
298 297 299 298 298 299 300 301 301 301 302 302 302 303 306 305 306 304 304 306 305 305 305 305 305 304 304 304 303 303 303 304 304 306 307 308 308 308 308 310 314 313 312 313
298 299 299 300 301 301 294 299 304 304 306 308 310 307 304 305 306 303 303 304 304 304 304 303 302 302 303 303 303 302 302 302 303 304 305 305 305 306 307 308 309 310 311 313
298 299 299 299 301 292 298 306 306 306 304 304 305 305 305 305 305 303 302 302 303 303 303 302 301 301 301 301 302 301 300 300 301 302 303 304 303 303 304 305 306 307 308 311
298 299 295 293 303 302 304 306 306 305 306 302 304 304 306 305 303 303 302 302 302 302 302 301 301 301 300 300 300 299 299 299 299 300 301 302 302 302 302 303 304 304 306 308
298 298 296 301 302 298 304 303 301 303 307 301 304 304 304 304 303 302 301 301 301 301 300 300 300 299 299 298 298 298 298 298 298 299 299 299 300 300 301 302 302 304 305 306
300 300 299 300 300 301 306 301 299 307 303 300 302 303 303 303 302 301 300 300 300 300 300 299 299 298 297 297 296 296 296 296 296 296 297 297 298 299 299 300 301 302 302 304
302 300 301 302 304 300 299 299 299 299 297 301 300 301 301 300 300 300 299 298 299 299 298 297 296 296 295 295 295 295 294 294 294 294 294 295 295 296 298 299 299 300 302 303
297 299 298 300 299 298 297 297 297 296 299 299 299 298 299 299 299 298 298 297 298 297 296 295 295 294 294 294 294 293 293 293 293 293 293 293 294 294 295 296 298 299 301 302
296 297 297 298 298 296 295 295 295 297 297 297 297 297 299 298 297 297 296 297 296 295 295 294 294 294 293 293 292 292 292 292 292 292 292 292 293 293 294 294 296 298 299 301
295 295 297 297 296 296 296 295 296 296 296 297 299 299 298 297 296 296 295 295 295 294 294 293 293 293 293 292 291 291 291 291 291 291 291 291 291 292 293 293 294 295 297 299
294 296 296 296 295 295 295 295 295 295 295 295 298 298 295 294 294 294 293 293 293 293 293 292 292 292 291 291 291 291 290 290 290 290 290 290 291 291 292 292 293 294 294 296
Wind_Speed
6 7 5 3 1 4 5 6 9 11 12 13 17 23 22 16 17 15 8 7 11 13 14 28 30 35 35 37 37 42 39 41 45 40 37 36 39 40 42 44 43 43 42 42
7 6 2 3 4 3 4 7 8 8 11 13 12 24 20 21 21 18 18 15 9 9 14 15 26 31 34 36 43 40 44 40 48 43 42 36 34 35 40 42 43 45 44 43
2 3 4 4 7 5 3 5 5 12 12 7 10 21 13 15 15 11 13 13 8 9 11 16 15 27 34 37 41 44 48 47 46 46 37 30 28 25 30 39 46 46 44 44
2 4 4 5 4 4 4 7 9 8 7 3 5 10 15 15 19 17 10 13 12 10 7 6 11 16 31 41 45 47 49 49 51 45 38 41 40 36 43 43 40 43 46 46
6 6 7 4 7 7 7 7 9 11 8 5 4 7 6 8 15 10 10 11 10 11 9 10 10 21 28 36 43 43 45 48 48 46 44 44 42 42 38 34 36 43 46 48
6 4 1 2 6 6 10 5 6 7 4 8 6 8 6 3 7 6 12 13 14 13 16 16 17 17 22 31 42 45 44 47 47 47 49 45 45 39 31 34 34 37 41 46
6 6 5 6 7 5 7 4 4 5 2 9 6 8 6 10 10 10 8 11 13 14 14 16 14 14 20 25 33 42 42 42 43 45 49 48 48 42 39 38 38 35 34 34
4 5 7 11 3 5 7 2 3 4 4 6 8 5 4 8 14 18 16 14 18 19 18 20 19 16 22 25 24 35 37 39 39 41 45 49 48 41 35 30 30 33 36 40
4 4 6 3 11 2 6 3 2 2 3 4 4 7 7 19 20 22 21 19 19 20 21 20 20 26 32 34 29 13 24 30 32 37 35 38 38 37 36 29 31 28 30 32
1 5 2 7 6 6 4 4 1 2 3 3 4 4 11 19 18 20 19 18 16 17 20 21 21 30 36 37 36 37 15 4 18 24 28 27 28 29 29 29 39 37 33 32
2 1 5 3 3 2 5 4 4 2 0 3 4 3 10 11 7 10 14 11 8 14 15 18 19 32 36 39 42 41 37 28 6 13 22 26 28 28 26 23 24 26 22 33
2 1 3 5 7 5 1 3 4 3 5 3 3 3 10 12 11 12 14 15 15 14 15 16 20 30 33 36 39 40 40 38 36 20 9 13 15 18 21 21 21 26 43 39
0 1 3 4 4 4 3 2 3 6 2 4 1 4 14 14 14 12 14 15 15 16 17 18 19 21 27 33 35 37 40 41 42 37 27 21 10 4 4 8 7 12 11 8
6 4 6 5 3 0 6 9 8 3 2 3 8 10 11 11 13 11 13 11 12 14 16 17 18 19 27 30 32 36 37 39 41 42 37 34 26 19 14 8 6 7 8 8
3 3 2 6 6 6 11 14 13 11 12 5 15 12 6 10 8 7 9 11 13 14 17 16 16 15 26 30 30 28 32 37 38 37 33 33 36 30 21 17 16 15 13 13
1 3 2 5 8 8 10 12 13 13 14 11 16 12 3 7 7 8 10 10 13 15 15 15 14 18 22 25 28 34 31 31 34 33 30 33 37 35 35 30 25 20 17 15
3 2 2 4 2 5 4 5 5 5 3 3 2 2 6 10 8 6 8 10 12 12 13 14 13 15 17 19 20 24 28 27 24 24 27 29 31 34 33 33 30 28 26 19
4 4 2 3 4 3 4 1 3 6 3 2 2 3 6 7 7 3 5 4 5 9 14 13 18 22 19 18 19 25 27 25 25 26 23 23 26 27 30 31 33 33 32 29
9 4 1 2 1 7 2 3 1 1 4 2 2 2 4 6 6 6 2 4 4 3 7 17 20 18 23 24 26 26 23 22 24 24 26 26 27 29 25 27 29 32 30 32
9 2 3 2 2 5 3 1 4 4 5 2 3 4 4 5 3 5 6 4 5 8 15 15 18 25 24 27 27 28 29 26 21 25 28 29 30 33 31 27 31 29 31 32
5 2 7 4 4 7 3 2 5 4 3 8 2 4 4 3 5 6 6 6 15 16 15 17 23 21 23 29 31 28 25 25 30 32 31 30 29 31 31 33 34 34 35 34
6 6 4 3 4 8 2 4 2 4 6 5 6 4 7 7 6 4 6 7 11 13 16 19 17 18 23 23 24 29 31 30 31 34 37 37 33 31 30 29 32 31 31 29
3 5 3 8 5 2 4 5 5 6 6 6 5 11 7 5 4 6 6 6 10 14 17 19 21 22 21 21 22 25 30 34 38 37 35 36 37 35 31 30 31 29 27 28
3 3 3 2 3 5 5 5 5 4 5 9 11 8 3 6 6 5 5 5 8 13 15 19 21 22 25 28 30 30 30 33 33 32 33 35 34 36 35 30 28 27 27 24
5 2 4 8 10 9 11 7 5 7 6 11 6 3 5 5 6 5 5 5 10 13 19 21 21 22 26 29 31 33 36 35 36 35 35 35 33 32 33 33 32 29 33 30
7 7 5 7 6 6 7 6 7 6 10 12 6 3 3 5 5 8 7 11 12 16 18 20 23 26 30 32 33 33 34 34 35 36 34 33 34 34 34 32 35 34 36 37
Wind_Direction
5 62 50 329 164 235 275 291 295 303 286 281 280 280 295 301 296 297 288 263 262 270 247 234 224 212 205 201 201 207 204 205 199 199 200 205 208 212 218 223 226 226 226 225
23 46 240 289 320 306 295 305 305 278 326 305 282 279 285 287 287 279 283 280 250 242 265 261 231 218 207 201 203 203 207 204 204 201 206 207 206 213 218 222 227 229 229 229
106 261 323 335 308 298 273 248 274 286 304 301 279 278 279 279 277 279 273 273 263 250 241 246 241 223 211 207 203 203 206 205 206 206 200 204 204 213 214 222 227 228 229 229
283 289 332 337 290 270 288 227 259 279 315 324 349 291 306 297 291 293 285 285 287 294 330 271 261 242 220 214 209 208 206 204 206 202 199 195 195 202 212 215 217 222 227 229
293 306 351 11 320 319 254 277 267 279 287 293 279 282 329 345 312 306 297 297 297 300 306 309 241 238 249 231 217 213 210 205 205 198 201 200 204 210 212 209 211 216 225 228
270 277 220 209 314 266 289 314 276 254 218 267 248 239 290 291 256 269 291 329 333 334 334 322 307 298 275 247 224 217 211 208 203 199 199 202 208 211 204 204 205 211 215 223
329 314 325 59 332 336 7 13 342 339 338 276 266 239 271 304 330 16 25 357 346 358 355 356 338 342 333 291 226 218 212 211 206 202 200 204 209 210 207 203 204 205 206 212
14 337 4 340 5 273 305 73 132 303 301 297 297 266 42 9 14 16 0 3 8 359 359 0 355 354 355 336 276 217 210 211 206 205 208 205 210 208 213 215 213 211 208 213
10 272 336 305 329 304 315 22 264 212 240 271 268 303 328 2 14 13 5 2 5 7 11 2 360 8 10 9 359 319 220 210 209 209 212 213 211 209 206 217 220 224 227 221
14 285 308 303 3 358 70 303 322 0 315 315 299 43 5 355 8 5 360 359 5 22 15 18 21 21 18 17 16 22 18 244 217 215 217 218 218 219 231 212 224 219 221 228
21 141 299 323 37 300 350 20 351 314 275 304 296 88 9 349 359 18 335 334 6 14 14 10 17 15 16 14 15 19 18 27 332 229 221 216 213 216 219 219 210 214 237 240
303 179 290 275 276 254 168 56 41 6 331 283 268 258 40 21 1 357 359 360 5 20 12 21 17 21 14 16 15 12 12 14 22 19 253 232 229 218 212 223 243 256 249 231
358 316 342 355 20 26 47 29 3 312 247 252 255 269 17 357 341 345 16 31 22 13 19 19 18 12 8 9 13 12 11 10 10 17 27 45 55 128 183 209 187 230 237 248
185 188 195 209 238 330 294 300 303 254 241 274 257 303 356 346 346 8 11 18 28 23 24 27 18 10 9 10 9 4 6 11 7 13 13 15 14 19 21 32 33 7 356 358
98 212 234 266 281 272 269 280 283 253 243 235 277 290 329 321 334 0 356 11 20 17 25 21 23 9 4 4 -0 7 2 3 5 6 4 8 12 2 358 10 12 12 12 6
13 270 341 287 254 258 270 275 271 259 257 253 258 277 336 303 328 9 352 9 17 14 14 13 16 16 5 356 354 351 358 0 357 357 353 355 0 0 2 357 347 342 345 346
187 206 139 271 316 311 331 245 263 268 54 289 80 15 323 330 332 7 7 15 7 1 359 360 357 355 354 345 346 340 342 346 345 345 346 351 351 345 345 344 347 342 329 323
178 181 158 263 346 10 238 118 76 84 94 44 84 336 307 309 302 63 21 7 356 345 346 345 342 342 344 340 335 337 340 340 338 335 335 340 338 334 331 330 329 333 336 327
185 159 216 132 250 293 230 120 3 123 244 237 253 271 263 297 310 294 24 314 310 296 303 319 326 331 335 333 331 335 334 335 334 327 325 329 327 320 320 319 313 314 323 325
170 103 130 186 220 241 225 299 284 157 244 160 212 265 284 311 322 268 286 312 272 298 318 318 331 329 332 333 336 330 328 331 327 320 319 319 312 308 305 306 305 306 309 310
139 185 217 234 255 279 193 40 301 188 267 330 279 271 280 241 230 269 313 306 314 316 315 331 331 332 328 330 330 325 324 322 319 316 311 303 299 296 299 299 299 302 304 305
173 163 195 191 237 258 162 64 142 258 316 287 295 284 279 272 278 287 296 301 309 313 334 332 327 324 324 326 323 317 316 317 314 310 305 304 304 301 296 291 291 293 293 292
235 194 194 189 215 181 167 176 226 255 234 279 281 298 280 285 269 291 287 298 314 327 325 329 328 322 322 321 319 310 309 314 314 310 303 302 304 302 299 295 295 291 287 283
266 178 227 3 228 244 211 238 236 258 257 285 279 269 267 271 278 278 289 307 314 320 320 324 323 320 321 324 323 316 315 314 309 304 304 303 302 300 299 295 286 281 273 268
201 186 204 262 277 282 280 265 259 290 308 310 279 265 293 314 321 328 324 322 321 321 324 324 321 322 322 323 321 322 320 320 314 309 307 303 300 296 294 291 285 281 278 273
184 219 194 241 219 213 256 257 262 260 287 283 256 277 57 18 333 329 324 328 326 325 321 321 322 325 325 325 322 321 321 316 311 306 302 298 294 291 287 285 285 279 276 277